When you browse on this site, cookies collect data to enhance your experience and personalize the content and advertising you see.
Visit our Privacy Policy to learn more. By continuing to use the site, you agree to this use of cookies and data.
  • In United Kingdom
  • List of Countries
  • For 7 days
  • Water Temperature
  • Satellite Maps
  • Weather Map
  • Weather Widgets
  • user-avatar
    Login

    Hourly Weather Santiago Yaitepec

    Today, 23 April, Tuesday

    Time Temperature Precipitation Wind Pressure Humidity
    00:00 +13°C° 0 mm 0 mps 600 mmHg 80%
    01:00 +13°C° 0 mm 0 mps 600 mmHg 80%
    02:00 +12°C° 0 mm 0 mps 599 mmHg 79%
    03:00 +12°C° 0 mm 0 mps 599 mmHg 79%
    04:00 +12°C° 0 mm 0 mps 599 mmHg 78%
    05:00 +13°C° 0 mm 1 mps 599 mmHg 77%
    06:00 +13°C° 0 mm 1 mps 599 mmHg 76%
    07:00 +16°C° 0 mm 1 mps 600 mmHg 65%
    08:00 +20°C° 0 mm 1 mps 602 mmHg 55%
    09:00 +23°C° 0 mm 1 mps 603 mmHg 44%
    10:00 +24°C° 0 mm 1 mps 604 mmHg 40%
    11:00 +25°C° 0 mm 2 mps 604 mmHg 36%
    12:00 +26°C° 0 mm 2 mps 604 mmHg 32%
    13:00 +26°C° 0 mm 2 mps 603 mmHg 33%
    14:00 +26°C° 0 mm 3 mps 603 mmHg 34%
    15:00 +26°C° 0 mm 3 mps 602 mmHg 34%
    16:00 +24°C° 0 mm 2 mps 601 mmHg 40%
    17:00 +23°C° 0 mm 2 mps 600 mmHg 46%
    18:00 +20°C° 0 mm 2 mps 599 mmHg 52%
    19:00 +19°C° 0 mm 1 mps 599 mmHg 60%
    20:00 +18°C° 0 mm 1 mps 599 mmHg 68%
    21:00 +14°C° 0 mm 0 mps 599 mmHg 76%
    22:00 +14°C° 0 mm 0 mps 599 mmHg 77%
    23:00 +13°C° 0 mm 0 mps 599 mmHg 78%

    Tomorrow, 24 April, Wednesday

    Time Temperature Precipitation Wind Pressure Humidity
    00:00 +13°C° 0 mm 0 mps 599 mmHg 78%
    01:00 +14°C° 0 mm 1 mps 599 mmHg 78%
    02:00 +14°C° 0 mm 1 mps 598 mmHg 78%
    03:00 +13°C° 0 mm 1 mps 598 mmHg 77%
    04:00 +13°C° 0 mm 1 mps 598 mmHg 76%
    05:00 +13°C° 0 mm 1 mps 598 mmHg 76%
    06:00 +13°C° 0 mm 1 mps 598 mmHg 75%
    07:00 +16°C° 0 mm 1 mps 599 mmHg 62%
    08:00 +20°C° 0 mm 1 mps 601 mmHg 50%
    09:00 +23°C° 0 mm 1 mps 603 mmHg 37%
    10:00 +24°C° 0 mm 1 mps 603 mmHg 34%
    11:00 +25°C° 0 mm 2 mps 603 mmHg 32%
    12:00 +26°C° 0 mm 2 mps 604 mmHg 29%
    13:00 +26°C° 0 mm 3 mps 603 mmHg 31%
    14:00 +26°C° 0 mm 3 mps 602 mmHg 32%
    15:00 +26°C° 0 mm 3 mps 601 mmHg 34%
    16:00 +24°C° 0 mm 3 mps 601 mmHg 38%
    17:00 +21°C° 0 mm 2 mps 600 mmHg 43%
    18:00 +20°C° 0 mm 2 mps 599 mmHg 48%
    19:00 +19°C° 0 mm 1 mps 599 mmHg 55%
    20:00 +16°C° 0 mm 1 mps 599 mmHg 62%
    21:00 +14°C° 0 mm 0 mps 599 mmHg 69%
    22:00 +13°C° 0 mm 0 mps 599 mmHg 69%
    23:00 +13°C° 0 mm 0 mps 599 mmHg 69%

    Day after tomorrow, 25 April, Thursday

    Time Temperature Precipitation Wind Pressure Humidity
    00:00 +14°C° 0 mm 1 mps 599 mmHg 68%
    01:00 +13°C° 0 mm 1 mps 598 mmHg 68%
    02:00 +13°C° 0 mm 1 mps 597 mmHg 68%
    03:00 +13°C° 0 mm 1 mps 597 mmHg 67%
    04:00 +13°C° 0 mm 1 mps 597 mmHg 65%
    05:00 +13°C° 0 mm 1 mps 597 mmHg 64%
    06:00 +12°C° 0 mm 1 mps 597 mmHg 62%
    07:00 +15°C° 0 mm 1 mps 599 mmHg 51%
    08:00 +19°C° 0 mm 1 mps 601 mmHg 40%
    09:00 +22°C° 0 mm 1 mps 602 mmHg 28%
    10:00 +23°C° 0 mm 1 mps 603 mmHg 26%
    11:00 +25°C° 0 mm 2 mps 603 mmHg 24%
    12:00 +26°C° 0 mm 2 mps 604 mmHg 21%
    13:00 +26°C° 0 mm 3 mps 603 mmHg 23%
    14:00 +26°C° 0 mm 3 mps 602 mmHg 25%
    15:00 +26°C° 0 mm 3 mps 602 mmHg 26%
    16:00 +24°C° 0 mm 2 mps 601 mmHg 31%
    17:00 +23°C° 0 mm 2 mps 601 mmHg 36%
    18:00 +20°C° 0 mm 2 mps 600 mmHg 40%
    19:00 +20°C° 0 mm 1 mps 600 mmHg 47%
    20:00 +18°C° 0 mm 1 mps 600 mmHg 53%
    21:00 +14°C° 0 mm 0 mps 600 mmHg 60%
    22:00 +14°C° 0 mm 0 mps 600 mmHg 60%
    23:00 +13°C° 0 mm 0 mps 600 mmHg 60%

    26 April, Friday

    Time Temperature Precipitation Wind Pressure Humidity
    00:00 +13°C° 0 mm 0 mps 601 mmHg 60%
    01:00 +14°C° 0 mm 1 mps 600 mmHg 60%
    02:00 +14°C° 0 mm 1 mps 600 mmHg 59%
    03:00 +14°C° 0 mm 1 mps 599 mmHg 59%
    04:00 +14°C° 0 mm 1 mps 599 mmHg 57%
    05:00 +14°C° 0 mm 1 mps 599 mmHg 56%
    06:00 +14°C° 0 mm 1 mps 599 mmHg 55%
    07:00 +18°C° 0 mm 1 mps 601 mmHg 49%
    08:00 +21°C° 0 mm 1 mps 603 mmHg 44%
    09:00 +24°C° 0 mm 1 mps 604 mmHg 38%
    10:00 +25°C° 0 mm 1 mps 605 mmHg 36%
    11:00 +26°C° 0 mm 1 mps 605 mmHg 34%
    12:00 +28°C° 0 mm 2 mps 605 mmHg 32%
    13:00 +26°C° 0 mm 2 mps 604 mmHg 36%
    14:00 +25°C° 0 mm 2 mps 603 mmHg 39%
    15:00 +24°C° 0 mm 2 mps 602 mmHg 42%
    16:00 +23°C° 0 mm 2 mps 602 mmHg 46%
    17:00 +21°C° 0 mm 2 mps 601 mmHg 49%
    18:00 +20°C° 0 mm 2 mps 601 mmHg 53%
    19:00 +19°C° 0 mm 1 mps 601 mmHg 60%
    20:00 +18°C° 0 mm 1 mps 601 mmHg 67%
    21:00 +14°C° 0 mm 0 mps 601 mmHg 74%
    22:00 +14°C° 0 mm 0 mps 601 mmHg 72%
    23:00 +15°C° 0 mm 1 mps 601 mmHg 70%

    27 April, Saturday

    Time Temperature Precipitation Wind Pressure Humidity
    00:00 +15°C° 0 mm 1 mps 601 mmHg 68%
    01:00 +15°C° 0 mm 1 mps 600 mmHg 66%
    02:00 +15°C° 0 mm 1 mps 600 mmHg 64%
    03:00 +15°C° 0 mm 1 mps 599 mmHg 63%
    04:00 +15°C° 0 mm 1 mps 599 mmHg 61%
    05:00 +15°C° 0 mm 1 mps 599 mmHg 60%
    06:00 +14°C° 0 mm 1 mps 599 mmHg 59%
    07:00 +19°C° 0 mm 1 mps 601 mmHg 51%
    08:00 +22°C° 0 mm 1 mps 603 mmHg 43%
    09:00 +23°C° 0 mm 0 mps 604 mmHg 35%
    10:00 +26°C° 0 mm 1 mps 604 mmHg 34%
    11:00 +27°C° 0 mm 1 mps 604 mmHg 32%
    12:00 +28°C° 0 mm 2 mps 604 mmHg 31%
    13:00 +27°C° 0 mm 2 mps 603 mmHg 33%
    14:00 +27°C° 0 mm 2 mps 603 mmHg 36%
    15:00 +26°C° 0 mm 3 mps 602 mmHg 38%
    16:00 +24°C° 0.4 mm 2 mps 601 mmHg 45%
    17:00 +23°C° 0.4 mm 2 mps 601 mmHg 51%
    18:00 +20°C° 0.4 mm 2 mps 600 mmHg 58%
    19:00 +20°C° 0.2 mm 1 mps 600 mmHg 64%
    20:00 +18°C° 0.2 mm 1 mps 600 mmHg 70%
    21:00 +15°C° 0.2 mm 0 mps 600 mmHg 76%
    22:00 +15°C° 0 mm 0 mps 600 mmHg 75%
    23:00 +16°C° 0 mm 1 mps 600 mmHg 75%

    28 April, Sunday

    Time Temperature Precipitation Wind Pressure Humidity
    00:00 +15°C° 0 mm 1 mps 600 mmHg 74%
    01:00 +15°C° 0 mm 1 mps 599 mmHg 73%
    02:00 +15°C° 0 mm 1 mps 599 mmHg 71%
    03:00 +15°C° 0 mm 1 mps 598 mmHg 70%
    04:00 +15°C° 0 mm 1 mps 599 mmHg 69%
    05:00 +15°C° 0 mm 1 mps 599 mmHg 68%
    06:00 +15°C° 0 mm 1 mps 599 mmHg 67%
    07:00 +18°C° 0 mm 1 mps 600 mmHg 58%
    08:00 +21°C° 0 mm 1 mps 602 mmHg 50%
    09:00 +24°C° 0 mm 1 mps 603 mmHg 42%
    10:00 +25°C° 0 mm 1 mps 603 mmHg 39%
    11:00 +26°C° 0 mm 2 mps 603 mmHg 36%
    12:00 +27°C° 0 mm 2 mps 604 mmHg 33%
    13:00 +27°C° 0 mm 2 mps 603 mmHg 34%
    14:00 +26°C° 0 mm 3 mps 602 mmHg 36%
    15:00 +26°C° 0 mm 3 mps 601 mmHg 37%
    16:00 +24°C° 0 mm 3 mps 601 mmHg 45%
    17:00 +21°C° 0 mm 2 mps 600 mmHg 52%
    18:00 +20°C° 0 mm 2 mps 600 mmHg 59%
    19:00 +19°C° 0 mm 1 mps 600 mmHg 66%
    20:00 +18°C° 0 mm 1 mps 600 mmHg 74%
    21:00 +15°C° 0 mm 0 mps 600 mmHg 81%
    22:00 +14°C° 0 mm 0 mps 600 mmHg 80%
    23:00 +15°C° 0 mm 1 mps 600 mmHg 78%
    Show more